TimeAKST,TemperatureF,Dew PointF,Humidity,Sea Level PressureIn,VisibilityMPH,Wind Direction,Wind SpeedMPH,Gust SpeedMPH,PrecipitationIn,Events,Conditions,WindDirDegrees,DateUTC
12:53 AM,25.0,10.9,55,29.83,10.0,North,6.9,-,N/A,,Scattered Clouds,10,2013-01-22 09:53:00
1:53 AM,23.0,10.0,58,29.82,10.0,NE,12.7,-,N/A,,Scattered Clouds,40,2013-01-22 10:53:00
3:53 AM,21.9,10.0,60,29.78,10.0,NE,12.7,-,N/A,,Scattered Clouds,40,2013-01-22 12:53:00
4:53 AM,19.9,9.0,62,29.77,10.0,NE,15.0,-,N/A,,Partly Cloudy,40,2013-01-22 13:53:00
5:53 AM,19.9,9.0,62,29.77,10.0,NE,13.8,-,N/A,,Partly Cloudy,50,2013-01-22 14:53:00
6:53 AM,19.0,8.1,62,29.75,10.0,NE,10.4,-,N/A,,Partly Cloudy,50,2013-01-22 15:53:00
7:53 AM,19.9,8.1,60,29.74,10.0,NE,13.8,-,N/A,,Partly Cloudy,40,2013-01-22 16:53:00
8:53 AM,21.0,9.0,60,29.73,10.0,NE,11.5,-,N/A,,Partly Cloudy,50,2013-01-22 17:53:00
9:53 AM,19.0,8.1,62,29.73,10.0,NE,11.5,-,N/A,,Partly Cloudy,50,2013-01-22 18:53:00
10:53 AM,16.0,7.0,68,29.73,10.0,East,9.2,-,N/A,,Partly Cloudy,100,2013-01-22 19:53:00
11:53 AM,17.1,7.0,65,29.71,10.0,NE,10.4,-,N/A,,Mostly Cloudy,40,2013-01-22 20:53:00
12:53 PM,18.0,7.0,62,29.71,10.0,ENE,8.1,-,N/A,,Mostly Cloudy,70,2013-01-22 21:53:00
1:53 PM,16.0,6.1,65,29.71,10.0,NE,9.2,-,N/A,,Mostly Cloudy,50,2013-01-22 22:53:00
2:53 PM,16.0,7.0,68,29.71,10.0,ENE,10.4,-,N/A,,Mostly Cloudy,60,2013-01-22 23:53:00
2:55 PM,16.0,7.0,68,29.71,10.0,ENE,10.4,-,N/A,,Mostly Cloudy,60,2013-01-22 23:55:00
3:53 PM,16.0,6.1,65,29.70,10.0,ENE,11.5,-,N/A,,Mostly Cloudy,60,2013-01-23 00:53:00
4:53 PM,15.1,6.1,68,29.68,10.0,NE,11.5,-,N/A,,Mostly Cloudy,40,2013-01-23 01:53:00
5:53 PM,15.1,6.1,68,29.67,10.0,NE,12.7,-,N/A,,Mostly Cloudy,40,2013-01-23 02:53:00
6:53 PM,16.0,6.1,65,29.67,10.0,NE,11.5,-,N/A,,Mostly Cloudy,50,2013-01-23 03:53:00
7:53 PM,16.0,6.1,65,29.66,10.0,NE,8.1,-,N/A,,Mostly Cloudy,50,2013-01-23 04:53:00
8:53 PM,17.1,8.1,68,29.66,10.0,ENE,8.1,-,N/A,,Mostly Cloudy,60,2013-01-23 05:53:00
9:53 PM,18.0,9.0,68,29.67,10.0,NE,5.8,-,N/A,,Mostly Cloudy,50,2013-01-23 06:53:00
10:53 PM,18.0,-9999,N/A,29.67,10.0,ENE,4.6,-,N/A,,Overcast,60,2013-01-23 07:53:00
11:53 PM,19.0,9.0,65,29.66,10.0,ENE,4.6,-,N/A,,Overcast,60,2013-01-23 08:53:00